SCP
0 -0 -0 -0 -0 -0 0 0 0 0 0 0 -0 -0 0 0 0 0 0 0 0 0 0 0 0 0 0 0 0 0 0 0 0 0 -0 0 0 0 0 0 0 0 0 0
0 -0 -0 -0 -0 0 0 0 0 0 0 0 0 0 0 0 0 0 0 0 0 0 0 0 0 0 0 0 0 0 0 0 0 0 0 0 0 0 0 0 0 0 0 0
0 0 -0 -0 -0 -0 0 0 0 0 0 0 0 0 0 0 0 0 0 0 0 0 0 0 0 0 0 0 0 0 0 0 0 0 0 0 0 0 0 0 0 0 0 0
0 0 -0 -0 -0 -0 0 0 0 0 0 0 0 0 0 0 0 0 0 0 0 0 0 0 0 0 0 0 0 0 0 0 0 0 0 -0 -0 0 0 0 0 0 0 0
0 0 0 -0 -0 -0 0 0 0 0 0 0 0 0 0 0 0 0 0 0 0 0 0 0 0 0 0 0 -0 0 0 0 0 -0 0 0 0 0 -0 0 0 0 0 0
0 0 0 0 -0 -0 0 0 0 0 0 0 0 0 0 0 0 0 0 0 0 0 0 0 0 0 0 0 0 0 0 0 0 -0 0 0 0 0 0 0 0 0 0 0
0 0 0 0 0 0 0 0 0 0 0 0 0 0 0 0 0 0 0 0 0 0 0 0 0 0 0 0 0 0 0 0 0 0 -0 0 0 0 0 0 0 0 0 0
0 0 0 0 0 0 0 0 0 0 0 0 0 0 0 0 0 0 0 0 0 0 0 0 -0 0 0 0 0 0 0 0 0 0 0 0 0 0 0 0 0 0 0 0
0 0 0 0 0 0 0 0 0 0 0 0 0 0 0 0 -0 0 0 0 0 0 0 0 0 -0 0 0 0 0 0 0 0 0 0 0 0 0 0 0 0 0 0 0
0 0 0 0 0 0 0 0 0 0 0 0 0 0 0 0 0 0 0 0 0 0 0 -0 -0 0 0 0 0 0 0 0 0 0 0 0 0 0 0 0 0 0 0 0
0 0 0 0 0 0 0 0 0 0 0 0 0 0 0 0 0 0 0 0 0 0 0 -0 0 0 0 0 0 0 0 0 0 0 0 0 0 0 0 0 0 0 0 0
0 0 0 0 0 0 0 0 0 0 0 0 0 0 0 0 -0 0 0 0 -0 -0 0 -0 -0 -0 -0 -0 0 0 0 0 0 0 0 0 0 0 0 0 0 0 0 0
0 0 0 0 0 0 0 0 0 0 0 0 -0 -0 -0 -0 -0 -0 -0 -0 -0 -0 -0 -0 -0 0 0 0 0 0 0 0 0 0 0 0 0 0 0 0 0 0 0 0
0 0 0 0 0 0 0 0 0 0 0 0 0 0 0 -0 -0 0 -0 0 0 -0 -0 -0 -0 0 0 0 0 0 0 0 0 0 0 0 0 0 0 0 0 0 0 0
0 0 0 0 0 0 0 0 0 0 0 0 0 -0 -0 -0 0 0 -0 0 0 -0 -0 0 0 0 0 0 0 0 0 0 0 0 0 0 0 0 0 0 0 0 0 0
0 0 0 0 0 0 0 0 0 0 0 0 0 0 0 0 0 -0 0 -0 0 -0 0 0 0 0 0 0 0 0 0 0 0 0 0 0 0 0 0 0 0 0 0 0
0 0 0 0 0 0 0 0 0 0 0 0 0 0 0 0 0 0 0 0 0 0 0 0 0 0 0 0 0 0 0 0 0 0 0 0 0 0 0 0 0 0 0 0
0 0 0 0 0 0 0 0 0 0 0 0 0 0 0 0 0 0 0 0 0 0 0 0 0 0 0 0 0 0 0 0 0 0 0 0 0 0 0 0 0 0 0 0
0 0 0 0 0 0 0 0 0 0 0 0 0 0 0 0 -0 0 0 0 0 0 0 0 0 0 0 0 0 0 0 0 0 0 0 0 0 0 0 0 0 0 0 0
0 0 0 0 0 0 0 0 0 0 0 0 0 0 0 0 0 0 0 0 0 0 0 0 0 0 0 0 0 0 0 0 0 0 0 0 0 0 0 0 0 0 0 0
0 0 0 0 0 0 0 0 0 0 0 0 0 0 0 0 0 0 0 0 0 0 0 0 0 0 0 0 0 0 0 0 0 0 0 0 0 0 0 0 0 0 0 0
0 0 0 0 0 0 0 0 0 0 0 0 0 0 0 0 0 0 0 0 0 0 0 0 0 0 0 0 0 0 0 0 0 0 0 0 0 0 0 0 0 0 0 0
0 0 0 0 0 0 0 0 0 0 0 0 0 0 0 0 0 0 0 0 0 0 0 0 0 1 0 0 0 0 0 0 0 0 0 0 0 0 0 0 0 0 0 0
0 0 0 0 0 0 0 0 0 0 0 0 0 0 0 0 0 0 0 0 0 0 0 0 1 1 0 0 0 0 0 0 0 0 0 0 0 0 0 0 0 0 0 -0
0 0 0 0 0 0 0 0 0 0 0 0 0 0 0 0 0 0 0 0 0 0 0 0 1 1 0 0 0 0 0 0 0 0 0 0 0 0 0 0 0 0 -0 -0
0 0 0 0 0 0 0 0 0 0 0 0 0 0 0 0 0 0 0 0 0 0 0 2 2 1 0 0 0 0 0 0 0 0 0 0 0 0 0 0 0 0 0 0
0 0 0 0 0 0 0 0 0 0 0 0 0 0 0 0 0 0 0 0 0 0 0 0 1 1 1 1 0 0 0 0 0 0 0 0 0 0 0 0 0 0 -0 -0
Wind_Speed_500mb
45 47 50 54 52 41 14 10 10 6 5 15 20 10 14 8 16 12 13 12 21 23 26 20 18 23 18 9 14 18 19 7 17 34 40 26 16 20 9 8 16 17 23 8
43 45 47 47 49 49 44 20 22 4 2 9 11 11 7 7 13 9 13 15 9 18 14 15 16 9 19 9 14 9 18 12 17 23 14 19 13 17 18 22 11 19 22 8
42 44 44 42 36 35 34 15 9 7 5 11 14 20 9 4 8 21 10 18 20 14 21 19 11 26 14 15 22 15 7 10 22 24 35 36 36 30 31 21 5 31 18 10
43 44 44 42 33 21 24 9 9 10 11 18 22 10 18 14 9 5 8 14 13 17 16 23 16 15 22 13 5 1 7 18 24 31 36 38 37 30 26 33 28 17 16 30
43 46 46 42 33 12 9 16 14 23 27 12 17 2 13 14 9 3 19 5 12 14 13 24 22 17 13 14 19 14 17 20 28 35 37 38 35 18 18 29 25 20 22 19
43 44 43 39 31 17 10 20 13 14 16 11 14 10 3 4 17 1 12 20 20 20 21 16 18 15 9 16 14 15 16 17 20 29 35 36 11 22 23 20 24 15 15 8
43 41 37 32 26 18 10 18 18 17 18 10 14 9 6 5 14 18 12 15 26 17 17 18 21 23 26 21 11 7 9 17 15 17 25 10 12 25 19 23 23 17 12 16
41 37 32 27 21 14 7 12 11 17 16 11 2 7 11 3 9 17 10 14 12 19 18 12 16 19 25 16 2 6 6 11 12 5 13 6 11 19 18 14 23 26 22 26
37 32 27 23 18 12 4 8 11 14 22 20 18 13 5 17 11 17 15 9 8 15 16 14 9 12 10 4 13 11 7 8 10 17 11 8 11 18 16 21 7 13 16 31
31 27 24 20 15 10 3 2 8 6 22 16 9 15 19 19 16 4 1 11 15 4 9 14 17 11 7 2 10 7 7 8 8 11 5 6 14 19 26 9 4 16 25 23
27 24 22 18 12 5 6 2 8 5 16 12 9 10 15 19 17 13 13 9 6 10 13 7 6 6 5 7 10 9 9 6 8 9 8 2 28 13 14 13 23 17 20 18
24 21 19 15 8 1 11 10 12 9 9 12 7 4 4 5 11 14 15 4 8 11 8 8 9 16 10 18 7 8 5 6 7 10 4 11 23 19 15 15 18 17 15 14
21 19 16 14 6 5 16 3 11 10 13 20 16 14 5 2 3 8 12 18 12 8 11 20 8 6 11 9 9 12 6 9 5 7 11 18 18 16 18 18 15 15 13 12
19 17 15 13 5 7 13 5 6 8 15 13 12 7 8 6 4 1 3 4 9 10 10 14 11 12 2 10 5 12 7 5 10 17 8 20 21 18 13 11 11 11 14 14
17 15 13 8 4 9 11 12 3 7 9 14 5 3 9 1 7 9 4 3 6 13 14 11 9 11 14 13 8 8 22 10 7 5 10 10 17 11 6 10 9 9 12 15
14 12 9 2 9 12 15 5 3 6 6 11 5 10 7 6 8 11 10 8 4 14 10 10 8 9 6 11 6 10 17 19 16 20 17 20 17 13 10 10 9 10 14 18
12 9 7 14 18 18 9 4 10 9 4 7 9 10 8 9 10 14 14 12 12 14 17 11 17 4 5 8 15 21 19 18 18 21 23 17 12 15 13 12 15 15 17 14
8 6 17 21 23 16 10 9 7 9 1 9 9 5 10 14 15 17 15 17 16 12 14 12 9 13 9 6 18 20 16 16 14 9 13 20 19 16 12 12 13 14 13 12
12 23 27 26 7 1 2 10 3 9 3 12 9 12 6 14 18 15 15 10 10 16 15 22 14 12 10 11 17 15 18 15 17 11 15 17 16 13 7 6 7 14 14 11
34 22 5 1 3 6 3 4 4 7 9 10 14 19 8 13 16 17 8 12 10 11 18 16 9 16 12 20 10 20 19 17 18 18 20 18 16 11 6 4 5 12 16 11
8 3 5 3 3 5 7 1 7 9 7 13 18 31 24 11 12 13 15 6 9 8 11 8 9 17 33 23 18 22 21 19 14 15 20 13 13 12 11 8 11 17 14 13
4 11 11 6 5 4 6 6 8 8 6 7 8 12 25 14 9 11 2 8 8 10 12 7 12 10 32 30 28 25 26 21 19 12 10 8 7 8 12 16 18 18 16 12
6 1 6 3 2 4 7 9 5 6 14 7 4 10 8 10 10 13 3 9 13 21 9 18 14 31 26 25 29 32 28 27 20 16 14 13 12 14 17 21 23 19 14 10
3 4 1 8 9 9 10 10 8 13 8 11 15 14 7 17 12 10 7 10 15 12 21 28 21 39 33 32 34 37 35 24 23 19 16 15 15 18 22 25 22 17 15 7
3 4 5 11 17 17 13 16 17 18 18 10 22 21 24 16 3 9 7 6 10 12 24 6 43 41 38 38 37 34 31 30 24 21 18 18 19 22 26 25 22 19 16 11
2 6 10 10 10 12 17 26 22 18 22 19 17 8 10 9 5 9 12 16 12 8 7 33 41 38 37 39 41 38 32 28 25 21 20 20 22 25 27 27 19 18 15 6
8 7 13 15 10 16 18 17 14 17 17 12 7 7 8 12 10 26 12 20 10 24 5 22 41 44 41 37 35 33 32 29 26 24 22 22 23 27 30 26 20 14 12 5
Wind_Direction_500mb
357 357 358 358 356 2 352 326 290 27 348 250 236 264 7 14 316 323 291 296 299 312 329 331 335 60 70 42 351 350 59 332 300 315 304 43 339 318 323 313 314 318 306 314
356 356 357 360 357 359 358 325 304 359 286 275 293 134 290 342 316 318 320 307 326 321 319 315 305 15 98 62 56 39 0 346 318 318 290 85 284 254 298 307 337 284 299 25
354 356 356 357 359 351 349 307 301 158 237 302 303 357 282 165 142 287 290 291 317 288 286 277 248 278 84 70 74 81 19 299 301 304 323 316 312 316 312 5 90 295 49 42
352 353 353 354 357 360 356 296 30 357 330 27 340 347 325 307 281 158 287 299 249 292 310 296 301 59 78 116 34 34 58 300 317 309 304 303 291 324 20 289 21 49 23 42
348 348 349 352 355 15 6 342 350 344 286 319 290 206 271 293 331 2 324 266 345 312 27 23 33 16 37 140 250 349 346 310 306 300 292 292 304 76 329 38 32 51 68 77
343 345 345 347 351 6 351 352 330 288 303 244 262 275 158 12 6 61 315 344 324 48 34 11 2 346 323 327 330 344 337 312 307 296 314 304 355 5 28 75 59 19 3 240
337 340 342 343 346 2 46 341 330 284 272 260 18 57 324 291 15 337 46 351 4 14 340 333 313 281 273 261 265 117 319 302 294 303 326 356 71 46 49 69 53 73 25 338
332 335 337 336 337 338 322 16 337 315 300 350 7 235 286 293 136 261 7 55 356 334 316 299 268 256 239 274 220 235 48 310 316 319 316 222 36 33 17 21 60 33 351 352
327 331 334 331 331 330 194 330 320 296 301 39 4 343 340 291 287 174 226 133 347 331 305 286 255 271 291 197 106 6 308 61 355 318 304 353 35 13 357 327 67 315 324 18
324 328 333 329 329 329 247 250 315 304 288 65 1 8 354 352 321 296 69 34 344 303 263 269 270 292 332 317 10 330 16 322 303 331 309 82 12 332 321 7 247 2 21 22
319 324 331 327 323 332 169 240 311 36 312 59 36 14 19 2 347 353 22 268 48 290 298 339 317 319 43 292 72 353 16 338 340 345 322 348 3 15 38 40 64 34 22 19
314 321 327 324 312 63 130 58 348 294 285 6 335 268 331 14 10 355 334 95 34 13 344 347 324 342 34 348 32 38 20 61 319 21 51 85 67 70 61 55 48 35 34 29
310 318 325 325 302 186 191 69 32 334 284 269 220 189 172 313 342 357 341 51 4 37 355 322 335 337 329 14 27 332 75 50 288 146 114 106 104 91 66 57 55 42 42 49
307 317 329 328 292 197 182 152 2 343 309 281 116 165 255 224 231 212 36 27 345 319 294 304 300 302 25 311 344 274 356 156 358 70 77 92 89 91 83 71 52 58 51 73
306 319 329 315 212 182 188 190 93 343 324 328 58 161 165 201 212 213 232 297 308 279 239 220 252 280 352 309 295 285 64 33 30 89 55 74 129 105 111 79 54 53 88 95
303 326 343 160 152 143 104 142 91 215 339 306 287 116 182 209 205 207 210 225 253 274 301 278 275 99 331 285 229 78 100 73 44 90 81 95 112 106 91 92 75 84 107 97
301 342 134 145 145 136 75 72 223 245 179 264 267 175 140 189 202 208 216 209 246 257 280 231 274 182 180 275 292 111 95 99 102 109 113 116 146 129 111 94 92 105 112 89
320 114 137 135 123 91 54 352 357 152 234 270 274 160 183 177 206 226 213 230 221 222 246 261 259 177 219 255 118 123 127 122 137 103 69 108 114 117 108 107 112 117 121 96
118 114 117 125 90 29 210 6 46 178 234 305 246 273 99 170 223 222 172 230 253 226 223 238 241 231 222 203 154 156 146 169 145 134 123 121 125 128 130 130 167 137 131 118
115 100 49 180 82 302 345 332 164 191 219 243 261 279 276 195 202 211 235 171 237 236 213 229 227 249 68 150 136 151 153 179 154 151 126 147 158 154 156 167 171 147 143 129
62 40 77 356 130 138 223 297 272 196 228 217 245 249 277 209 254 234 209 180 270 232 212 214 238 225 179 168 168 158 161 157 160 156 159 166 172 187 161 154 150 150 146 134
125 109 100 135 246 230 240 224 208 239 250 203 251 238 232 276 224 271 202 244 241 243 120 231 252 103 141 159 163 166 156 161 149 152 156 144 152 160 156 154 155 148 138 132
110 277 191 232 181 49 222 186 215 231 183 253 282 265 255 216 240 250 214 252 230 253 221 237 249 141 158 163 165 153 152 148 146 149 144 141 140 147 151 149 150 148 143 136
264 212 319 216 188 219 214 254 323 22 360 321 296 260 236 248 210 239 235 242 277 247 236 243 163 163 163 166 169 155 150 156 158 155 151 144 145 147 148 149 153 149 149 144
350 271 239 214 249 324 358 349 334 353 329 289 279 267 250 234 179 282 223 228 239 240 240 209 129 149 157 158 158 152 156 158 158 157 153 147 152 151 151 152 158 149 153 130
256 239 263 252 276 287 347 354 336 336 321 317 282 291 299 203 253 223 249 252 241 309 16 135 148 153 156 156 152 153 156 157 156 155 155 153 156 158 161 157 157 165 150 153
219 240 241 269 298 356 335 330 343 328 326 299 295 259 238 316 268 235 262 267 312 359 225 215 155 148 152 153 149 152 150 152 152 151 152 154 158 163 163 167 167 167 178 156
Wind_Speed_850mb
45 47 50 54 52 41 14 10 10 6 5 15 20 10 14 8 16 12 13 12 21 23 26 20 18 23 18 9 14 18 19 7 17 34 40 26 16 20 9 8 16 17 23 8
43 45 47 47 49 49 44 20 22 4 2 9 11 11 7 7 13 9 13 15 9 18 14 15 16 9 19 9 14 9 18 12 17 23 14 19 13 17 18 22 11 19 22 8
42 44 44 42 36 35 34 15 9 7 5 11 14 20 9 4 8 21 10 18 20 14 21 19 11 26 14 15 22 15 7 10 22 24 35 36 36 30 31 21 5 31 18 10
43 44 44 42 33 21 24 9 9 10 11 18 22 10 18 14 9 5 8 14 13 17 16 23 16 15 22 13 5 1 7 18 24 31 36 38 37 30 26 33 28 17 16 30
43 46 46 42 33 12 9 16 14 23 27 12 17 2 13 14 9 3 19 5 12 14 13 24 22 17 13 14 19 14 17 20 28 35 37 38 35 18 18 29 25 20 22 19
43 44 43 39 31 17 10 20 13 14 16 11 14 10 3 4 17 1 12 20 20 20 21 16 18 15 9 16 14 15 16 17 20 29 35 36 11 22 23 20 24 15 15 8
43 41 37 32 26 18 10 18 18 17 18 10 14 9 6 5 14 18 12 15 26 17 17 18 21 23 26 21 11 7 9 17 15 17 25 10 12 25 19 23 23 17 12 16
41 37 32 27 21 14 7 12 11 17 16 11 2 7 11 3 9 17 10 14 12 19 18 12 16 19 25 16 2 6 6 11 12 5 13 6 11 19 18 14 23 26 22 26
37 32 27 23 18 12 4 8 11 14 22 20 18 13 5 17 11 17 15 9 8 15 16 14 9 12 10 4 13 11 7 8 10 17 11 8 11 18 16 21 7 13 16 31
31 27 24 20 15 10 3 2 8 6 22 16 9 15 19 19 16 4 1 11 15 4 9 14 17 11 7 2 10 7 7 8 8 11 5 6 14 19 26 9 4 16 25 23
27 24 22 18 12 5 6 2 8 5 16 12 9 10 15 19 17 13 13 9 6 10 13 7 6 6 5 7 10 9 9 6 8 9 8 2 28 13 14 13 23 17 20 18
24 21 19 15 8 1 11 10 12 9 9 12 7 4 4 5 11 14 15 4 8 11 8 8 9 16 10 18 7 8 5 6 7 10 4 11 23 19 15 15 18 17 15 14
21 19 16 14 6 5 16 3 11 10 13 20 16 14 5 2 3 8 12 18 12 8 11 20 8 6 11 9 9 12 6 9 5 7 11 18 18 16 18 18 15 15 13 12
19 17 15 13 5 7 13 5 6 8 15 13 12 7 8 6 4 1 3 4 9 10 10 14 11 12 2 10 5 12 7 5 10 17 8 20 21 18 13 11 11 11 14 14
17 15 13 8 4 9 11 12 3 7 9 14 5 3 9 1 7 9 4 3 6 13 14 11 9 11 14 13 8 8 22 10 7 5 10 10 17 11 6 10 9 9 12 15
14 12 9 2 9 12 15 5 3 6 6 11 5 10 7 6 8 11 10 8 4 14 10 10 8 9 6 11 6 10 17 19 16 20 17 20 17 13 10 10 9 10 14 18
12 9 7 14 18 18 9 4 10 9 4 7 9 10 8 9 10 14 14 12 12 14 17 11 17 4 5 8 15 21 19 18 18 21 23 17 12 15 13 12 15 15 17 14
8 6 17 21 23 16 10 9 7 9 1 9 9 5 10 14 15 17 15 17 16 12 14 12 9 13 9 6 18 20 16 16 14 9 13 20 19 16 12 12 13 14 13 12
12 23 27 26 7 1 2 10 3 9 3 12 9 12 6 14 18 15 15 10 10 16 15 22 14 12 10 11 17 15 18 15 17 11 15 17 16 13 7 6 7 14 14 11
34 22 5 1 3 6 3 4 4 7 9 10 14 19 8 13 16 17 8 12 10 11 18 16 9 16 12 20 10 20 19 17 18 18 20 18 16 11 6 4 5 12 16 11
8 3 5 3 3 5 7 1 7 9 7 13 18 31 24 11 12 13 15 6 9 8 11 8 9 17 33 23 18 22 21 19 14 15 20 13 13 12 11 8 11 17 14 13
4 11 11 6 5 4 6 6 8 8 6 7 8 12 25 14 9 11 2 8 8 10 12 7 12 10 32 30 28 25 26 21 19 12 10 8 7 8 12 16 18 18 16 12
6 1 6 3 2 4 7 9 5 6 14 7 4 10 8 10 10 13 3 9 13 21 9 18 14 31 26 25 29 32 28 27 20 16 14 13 12 14 17 21 23 19 14 10
3 4 1 8 9 9 10 10 8 13 8 11 15 14 7 17 12 10 7 10 15 12 21 28 21 39 33 32 34 37 35 24 23 19 16 15 15 18 22 25 22 17 15 7
3 4 5 11 17 17 13 16 17 18 18 10 22 21 24 16 3 9 7 6 10 12 24 6 43 41 38 38 37 34 31 30 24 21 18 18 19 22 26 25 22 19 16 11
2 6 10 10 10 12 17 26 22 18 22 19 17 8 10 9 5 9 12 16 12 8 7 33 41 38 37 39 41 38 32 28 25 21 20 20 22 25 27 27 19 18 15 6
8 7 13 15 10 16 18 17 14 17 17 12 7 7 8 12 10 26 12 20 10 24 5 22 41 44 41 37 35 33 32 29 26 24 22 22 23 27 30 26 20 14 12 5
Wind_Direction_850mb
357 357 358 358 356 2 352 326 290 27 348 250 236 264 7 14 316 323 291 296 299 312 329 331 335 60 70 42 351 350 59 332 300 315 304 43 339 318 323 313 314 318 306 314
356 356 357 360 357 359 358 325 304 359 286 275 293 134 290 342 316 318 320 307 326 321 319 315 305 15 98 62 56 39 0 346 318 318 290 85 284 254 298 307 337 284 299 25
354 356 356 357 359 351 349 307 301 158 237 302 303 357 282 165 142 287 290 291 317 288 286 277 248 278 84 70 74 81 19 299 301 304 323 316 312 316 312 5 90 295 49 42
352 353 353 354 357 360 356 296 30 357 330 27 340 347 325 307 281 158 287 299 249 292 310 296 301 59 78 116 34 34 58 300 317 309 304 303 291 324 20 289 21 49 23 42
348 348 349 352 355 15 6 342 350 344 286 319 290 206 271 293 331 2 324 266 345 312 27 23 33 16 37 140 250 349 346 310 306 300 292 292 304 76 329 38 32 51 68 77
343 345 345 347 351 6 351 352 330 288 303 244 262 275 158 12 6 61 315 344 324 48 34 11 2 346 323 327 330 344 337 312 307 296 314 304 355 5 28 75 59 19 3 240
337 340 342 343 346 2 46 341 330 284 272 260 18 57 324 291 15 337 46 351 4 14 340 333 313 281 273 261 265 117 319 302 294 303 326 356 71 46 49 69 53 73 25 338
332 335 337 336 337 338 322 16 337 315 300 350 7 235 286 293 136 261 7 55 356 334 316 299 268 256 239 274 220 235 48 310 316 319 316 222 36 33 17 21 60 33 351 352
327 331 334 331 331 330 194 330 320 296 301 39 4 343 340 291 287 174 226 133 347 331 305 286 255 271 291 197 106 6 308 61 355 318 304 353 35 13 357 327 67 315 324 18
324 328 333 329 329 329 247 250 315 304 288 65 1 8 354 352 321 296 69 34 344 303 263 269 270 292 332 317 10 330 16 322 303 331 309 82 12 332 321 7 247 2 21 22
319 324 331 327 323 332 169 240 311 36 312 59 36 14 19 2 347 353 22 268 48 290 298 339 317 319 43 292 72 353 16 338 340 345 322 348 3 15 38 40 64 34 22 19
314 321 327 324 312 63 130 58 348 294 285 6 335 268 331 14 10 355 334 95 34 13 344 347 324 342 34 348 32 38 20 61 319 21 51 85 67 70 61 55 48 35 34 29
310 318 325 325 302 186 191 69 32 334 284 269 220 189 172 313 342 357 341 51 4 37 355 322 335 337 329 14 27 332 75 50 288 146 114 106 104 91 66 57 55 42 42 49
307 317 329 328 292 197 182 152 2 343 309 281 116 165 255 224 231 212 36 27 345 319 294 304 300 302 25 311 344 274 356 156 358 70 77 92 89 91 83 71 52 58 51 73
306 319 329 315 212 182 188 190 93 343 324 328 58 161 165 201 212 213 232 297 308 279 239 220 252 280 352 309 295 285 64 33 30 89 55 74 129 105 111 79 54 53 88 95
303 326 343 160 152 143 104 142 91 215 339 306 287 116 182 209 205 207 210 225 253 274 301 278 275 99 331 285 229 78 100 73 44 90 81 95 112 106 91 92 75 84 107 97
301 342 134 145 145 136 75 72 223 245 179 264 267 175 140 189 202 208 216 209 246 257 280 231 274 182 180 275 292 111 95 99 102 109 113 116 146 129 111 94 92 105 112 89
320 114 137 135 123 91 54 352 357 152 234 270 274 160 183 177 206 226 213 230 221 222 246 261 259 177 219 255 118 123 127 122 137 103 69 108 114 117 108 107 112 117 121 96
118 114 117 125 90 29 210 6 46 178 234 305 246 273 99 170 223 222 172 230 253 226 223 238 241 231 222 203 154 156 146 169 145 134 123 121 125 128 130 130 167 137 131 118
115 100 49 180 82 302 345 332 164 191 219 243 261 279 276 195 202 211 235 171 237 236 213 229 227 249 68 150 136 151 153 179 154 151 126 147 158 154 156 167 171 147 143 129
62 40 77 356 130 138 223 297 272 196 228 217 245 249 277 209 254 234 209 180 270 232 212 214 238 225 179 168 168 158 161 157 160 156 159 166 172 187 161 154 150 150 146 134
125 109 100 135 246 230 240 224 208 239 250 203 251 238 232 276 224 271 202 244 241 243 120 231 252 103 141 159 163 166 156 161 149 152 156 144 152 160 156 154 155 148 138 132
110 277 191 232 181 49 222 186 215 231 183 253 282 265 255 216 240 250 214 252 230 253 221 237 249 141 158 163 165 153 152 148 146 149 144 141 140 147 151 149 150 148 143 136
264 212 319 216 188 219 214 254 323 22 360 321 296 260 236 248 210 239 235 242 277 247 236 243 163 163 163 166 169 155 150 156 158 155 151 144 145 147 148 149 153 149 149 144
350 271 239 214 249 324 358 349 334 353 329 289 279 267 250 234 179 282 223 228 239 240 240 209 129 149 157 158 158 152 156 158 158 157 153 147 152 151 151 152 158 149 153 130
256 239 263 252 276 287 347 354 336 336 321 317 282 291 299 203 253 223 249 252 241 309 16 135 148 153 156 156 152 153 156 157 156 155 155 153 156 158 161 157 157 165 150 153
219 240 241 269 298 356 335 330 343 328 326 299 295 259 238 316 268 235 262 267 312 359 225 215 155 148 152 153 149 152 150 152 152 151 152 154 158 163 163 167 167 167 178 156